Location: Canazei
(46.4667°N, 11.7667°E)
Time: 05:14:54
(UTC+00:00)

COSMOS 2406 - Pass Details

Date: 21 April 2021
Orbit: 845 x 862 km, 71.0° (Epoch: 15 May)

Event Time Altitude Azimuth Distance (km) Brightness Sun altitude
Rises 01:43:59 0° 324° (NW) 3,417 6.5 -22.4°
Reaches altitude 10° 01:46:45 10° 313° (NW) 2,475 5.6 -22.1°
Enters shadow 01:50:13 26° 279° (W) 1,628 4.4 -21.7°
